Terminal Aerodrome Forecast
Issued by NWS Flagstaff, AZ

Home | Current Version | Previous Version | Text Only | Print | Product List | Glossary On
Versions: 1 2 3 4 5 6 7 8 9 10 11 12 13 14 15
000
FTUS45 KFGZ 060541
TAFINW
TAF
KINW 060541Z 0606/0706 24008KT P6SM SCT080 BKN120
     FM061800 26012KT P6SM SCT080 BKN120 PROB30 0621/0702 VRB15G30KT
      6SM TSRA BKN080CB
     FM070300 24008KT P6SM FEW070 BKN120=

USA.gov is the U.S. government's official web portal to all federal, state and local government web resources and services.